Location: Cahas Mountain Overlook
(37.0833°N, 80.1000°W)
Time: 06:55:29
(UTC-04:00)

Explorer 7 - Pass Details

Date: 09 February 2026
Orbit: 430 x 540 km, 50.2° (Epoch: 14 March)

Event Time Altitude Azimuth Distance (km) Brightness Sun altitude
Rises 01:17:36 0° 306° (NW) 2,671 - -65.6°
Reaches altitude 10° 01:19:49 10° 305° (NW) 1,791 - -65.4°
Maximum altitude 01:23:54 75° 221° (SW) 565 - -65.0°
Drops below altitude 10° 01:28:02 10° 136° (SE) 1,808 - -64.6°
Sets 01:30:16 0° 134° (SE) 2,698 - -64.4°
